Location: Mound City (historical)
(34.0564°N, 117.2656°W)
Time: 02:08:10
(UTC+00:00)

Cosmos 2360 Rocket - Pass Details

Date: 08 September 2024
Orbit: 835 x 842 km, 71.0° (Epoch: 03 October)

Event Time Altitude Azimuth Distance (km) Brightness Sun altitude
Rises 12:28:28 0° 338° (NNW) 3,388 5.3 -12.9°
Reaches altitude 10° 12:30:54 10° 337° (NNW) 2,450 4.5 -12.4°
Maximum altitude 12:36:32 82° 252° (WSW) 846 2.1 -11.3°
Drops below altitude 10° 12:42:07 10° 164° (SSE) 2,436 4.6 -10.2°
Sets 12:44:33 0° 163° (SSE) 3,366 5.4 -9.7°
